Regional Weather Roundup
Issued by NWS Newport/Morehead, NC

Current Version | Previous Version | Graphics & Text | Print | Product List | Glossary Off
Versions: 1 2 3 4 5 6 7 8 9 10 11 12 13 14 15 16 17 18 19 20 21 22 23 24 25 26 27 28 29 30 31 32 33 34 35 36 37 38 39 40 41 42 43 44 45 46 47 48 49 50
000 ASUS42 KMHX 302322 RWRMHX WEATHER ROUNDUP FOR EASTERN NORTH CAROLINA NATIONAL WEATHER SERVICE NEWPORT/MOREHEAD CITY NC 700 PM EDT THU OCT 30 2014 NOTE: "FAIR" INDICATES FEW OR NO CLOUDS BELOW 12,000 FEET WITH NO SIGNIFICANT WEATHER AND/OR OBSTRUCTIONS TO VISIBILITY NCZ015>017-031-032-045>047-102-103-310000- NORTH COAST CITY SKY/WX TMP DP RH WIND PRES REMARKS EDENTON MOCLDY 58 49 72 NE3 29.99S ELIZABETH CITY CLEAR 59 48 67 NE10 30.00R KITTY HAWK CLEAR 60 46 60 N7 29.97S MANTEO CLEAR 58 46 64 NE9 29.98F $$ NCZ045>047-081-094-103-104-310000- CENTRAL COAST CITY SKY/WX TMP DP RH WIND PRES REMARKS FRISCO CLEAR 61 48 62 NE12G20 29.96R SWANQUARTER N/A 57 N/A N/A NE2 29.94S $$ NCZ095-097-098-100-101-310000- SOUTHERN COAST CITY SKY/WX TMP DP RH WIND PRES REMARKS BEAUFORT PTCLDY 58 53 84 N6 29.96R CEDAR ISLAND N/A 63 N/A N/A N16G23 30.00S JACKSONVILLE CLEAR 59 52 77 NE7 29.96R PINEY ISLAND CLEAR 65 53 65 N9 29.96R WILMINGTON CLEAR 60 54 80 NE5 29.95R $$ NCZ011>013-027>030-043-044-078>080-089-090>093-098-310000- COASTAL PLAIN CITY SKY/WX TMP DP RH WIND PRES REMARKS AHOSKIE NOT AVBL CLINTON CLEAR 57 50 78 CALM 29.98S ELIZABETHTOWN CLEAR 58 49 73 CALM 29.97R GOLDSBORO CLEAR 58 52 80 NE3 29.96S GREENVILLE CLEAR 55 50 82 CALM 30.00S HAVELOCK CLEAR 60 53 77 NE7 29.97R KENANSVILLE CLEAR 54 49 83 CALM 29.98S KINSTON PTCLDY 55 50 82 CALM 29.99R NEW BERN CLEAR 59 51 75 NE5 29.98R RICHLANDS CLEAR 55 50 82 CALM 29.97S ROCKY MOUNT CLEAR 53 48 83 CALM 29.99R WASHINGTON CLEAR 55 50 85 N3 29.99S WHITEVILLE CLEAR 58 52 80 CALM 29.95S $$ AMZ130-135-150-152-154-156-158-170-250-252-270-ANZ085-086-088-633-658-670-310000- MARINE OBSERVATIONS STATION/POSITION TIME TEMP WIND PRES WAVE SWELL AIR SEA DIR/SP/G HT/PER HT/PER (UTC) (F) (DEG/KT/KT) (MB) (FT/S) (FT/S) CHESAPEAKE LIGHT 2300 60 360/ 12/ 13 1016.7 64 E VA BEACH 2300 62 67 360/ 12/ 16 1015.0 3/ 6 2/ 6 DUCK 2300 61 67 10/ 12/ 14 1014.6 2 E DUCK NOT AVBL 10 NE DUCK 2300 67 N/A 3/ 5 OREGON INLET 2300 61 68 10/ 12/ 16 1015.0 13E OREGON INLT 2300 69 N/A 4/ 5 HATTERAS CG 2300 63 69 30/ 12/ 19 1014.9 DIAMOND BUOY 2300 65 10/ 19/ 25 1013.7 4/ 5 2/ 8 17 S OCRACOKE NOT AVBL CAPE LOOKOUT 2300 63 20/ 14/ 16 1014.1 BEAUFORT LAB 2300 62 70 20/ 6/ 9 1013.7 30 SE NEW RIVER 2300 66 74 30/ 16/ 19 1013.3 3/ 5 5 SE WRIGHTSVLE 2200 64 71 70/ 12/ 14 N/A 225 S CAPE HAT 2152 74 78 80/ 6/ 8 1012.6 3/ 5 3/ 5 41 SE CHARLESTON 2300 69 77 20/ 16/ 17 1012.2 4/ 5 $$

USA.gov is the U.S. government's official web portal to all federal, state and local government web resources and services.